Tracking 30918 objects as of 2-Jul-2025
HD Live streaming from Space Station
objects crossing your sky now

COSMOS 2251 DEB

Track COSMOS 2251 DEB now!
10-day predictions


NORAD ID: 40803
Int'l Code: 1993-036BWG
Perigee: 704.8 km
Apogee: 752.3 km
Inclination: 74.0 °
Period: 99.2 minutes
Semi major axis: 7099 km
RCS: Unknown
Launch date: June 16, 1993
Source: Commonwealth of Independent States (former USSR) (CIS)
Launch site: PLESETSK MISSILE AND SPACE COMPLEX (PKMTR)

Note: This is SATELLITE DEBRIS
Your satellite tracking list
Your tracking list is empty




NASA's NSSDC Master Catalog

Two Line Element Set (TLE):
1 40803U 93036BWG 25182.74438738  .00000733  00000-0  18993-3 0  9994
2 40803  74.0140   1.0258 0033445 256.4510 103.2924 14.51303037563733
Source of the keplerian elements: AFSPC